Portada
METAR-TAF:

METAR-TAF

Aeroports :

Meekatharra, Austràlia

latitud: 26-36-42S, longitud: 118-32-52E, altitud: 522 m

Observació

L'informe es va fer fa 23 minuts, a les 14:00 UTC
Vent 10 kt del Est
Temperatura 26°C
Humitat 39%
Pressió 1013 hPa
Visibilitat 10 km o més

METAR: YMEK 071400Z AUTO 10010KT 9999 // NCD 26/11 Q1013

Hora: 22:23 (14:23 UTC)


TAF: manca

Observacions i pronòstics meteorològics de més de 4000 aeroports (METAR i TAF).

Les estacions disponibles són els punts grocs i vermells al mapa.

Posi el ratolí al punt desitjat per veure el nom de l'estació.

Feu clic per veure les observacions i els pronòstics meteorològics.

Per canviar el mapa: feu clic els botons verds amb una creu de color negre per apropar; al botó verd amb un guió per allunyar la imatge; o en les fletxes verdes per a mapes adjacents.


METAR-TAF: